Temperature
19 19 19 19 20 20 20 20 20 20 20 20 20 20 20 20 20 19 19 19 19 19 19 19 19 19 19 19 19 19 19 19 19 19 18 18 18 18 19 18 18 18 19
19 19 19 19 20 20 20 20 20 20 20 20 20 20 20 20 19 19 19 19 19 19 19 19 19 19 19 19 19 19 19 19 19 18 18 18 18 18 18 18 18 18 18
19 19 19 19 19 20 20 20 20 20 20 20 20 20 20 20 20 20 19 19 19 19 19 19 19 19 19 19 19 19 19 18 18 18 18 18 18 18 18 18 18 18 18
19 19 19 19 19 19 19 20 20 20 20 20 20 20 20 20 19 19 19 19 19 19 19 19 19 19 19 19 19 19 18 18 18 18 18 18 18 18 18 18 18 18 18
19 19 19 19 19 19 19 19 19 19 19 19 19 19 19 19 19 19 19 19 19 19 19 19 19 19 19 18 18 18 18 18 18 18 18 18 18 18 18 18 18 18 18
19 19 19 19 19 19 19 19 19 19 19 19 19 19 19 19 19 19 19 19 19 19 19 19 19 19 19 18 18 18 18 18 18 18 18 18 18 18 18 18 18 18 18
19 18 18 18 18 18 18 18 18 18 18 18 18 18 18 19 19 19 19 19 19 19 19 19 19 19 19 19 18 18 18 18 18 18 18 18 18 18 18 18 18 18 18
19 18 18 18 18 18 17 18 18 18 18 18 18 18 18 18 18 18 18 18 18 19 19 19 19 19 19 19 18 18 18 18 18 18 18 18 18 18 18 18 18 18 18
18 18 18 18 17 17 17 17 17 17 17 17 17 17 17 18 18 18 18 18 18 18 18 19 19 19 19 19 19 18 18 18 18 17 18 17 18 18 18 18 18 18 18
18 18 18 17 17 17 17 16 16 16 16 16 17 17 17 17 17 17 17 18 18 18 18 18 18 18 18 19 19 18 18 18 18 17 17 17 17 18 18 18 18 18 18
18 18 17 17 17 16 16 16 16 16 16 16 16 16 16 17 17 17 17 17 17 18 18 18 18 18 18 18 18 18 18 18 18 18 18 17 17 18 18 18 18 18 18
18 18 17 17 16 16 16 16 15 16 16 16 16 16 16 16 16 17 17 17 17 17 17 18 18 18 18 18 18 18 18 18 18 18 18 18 17 18 18 18 18 18 18
18 17 17 16 16 16 15 15 15 15 15 15 16 16 16 16 16 16 16 17 17 17 17 17 17 17 18 18 18 18 18 18 18 18 18 18 17 18 18 18 18 18 18
17 17 16 16 15 15 15 15 15 15 15 15 15 15 15 15 16 16 16 16 16 17 17 17 17 17 17 18 18 18 18 18 18 18 18 18 17 18 18 18 18 18 18
17 16 16 15 15 15 15 15 15 15 15 15 15 15 15 15 15 15 16 16 16 16 16 17 17 17 17 17 17 18 18 18 18 18 18 18 17 17 18 18 18 18 18
17 16 16 15 15 15 15 14 14 14 14 15 15 15 15 15 15 15 15 16 16 16 16 16 16 17 17 17 17 17 17 18 18 18 18 18 17 18 18 18 18 18 18
17 16 16 15 15 15 14 14 14 14 14 14 14 15 15 15 15 15 15 15 15 16 16 16 16 16 17 17 17 17 17 17 17 18 18 18 18 18 18 18 18 18 18
16 16 15 15 15 15 14 14 14 14 14 14 14 14 14 14 14 14 15 15 15 15 16 16 16 16 16 17 17 17 17 17 17 17 17 17 17 18 18 18 18 18 18
16 16 15 15 15 14 14 14 14 14 14 14 14 14 14 14 14 14 14 15 15 15 15 15 16 16 16 16 16 17 17 17 17 17 17 17 17 18 18 18 18 18 18
16 16 15 15 14 14 14 14 14 14 13 13 13 13 14 14 14 14 14 14 15 15 15 15 15 15 16 16 16 16 17 17 17 17 17 17 17 18 18 18 18 18 18
16 16 15 15 14 14 14 13 13 13 13 13 13 13 13 13 13 14 14 14 14 14 15 15 15 15 15 16 16 16 16 17 17 17 17 17 17 17 18 18 18 18 18
16 16 15 14 14 14 13 13 13 13 13 13 13 13 13 13 13 13 13 14 14 14 14 14 15 15 15 15 15 15 16 17 17 17 17 17 17 17 17 18 18 18 18
16 15 15 14 14 13 13 13 13 13 13 13 13 13 13 13 13 13 13 13 13 13 14 14 14 14 15 15 15 15 15 16 16 17 17 17 17 17 17 17 18 18 18
16 15 15 14 14 13 13 13 13 13 13 12 12 12 13 13 12 13 13 13 13 13 13 13 13 14 14 14 14 14 15 15 15 16 17 17 17 17 17 17 17 18 18
16 15 15 14 14 13 13 13 13 13 13 12 12 12 12 12 12 12 12 13 13 13 13 13 13 13 13 14 14 14 14 14 15 15 15 16 17 17 17 17 17 17 17
16 15 15 14 14 14 13 13 13 13 12 12 12 12 12 12 12 12 12 12 12 13 13 13 13 13 13 13 13 14 14 14 14 14 15 15 16 17 17 17 17 17 17
Wind_Speed
4 8 12 11 10 9 8 7 7 6 6 6 5 5 5 4 5 5 5 5 5 5 5 5 6 6 6 6 7 7 7 6 6 5 5 6 6 6 6 8 8 8 10
7 10 13 12 11 9 7 6 6 5 4 4 4 3 3 3 3 3 3 3 3 3 3 4 4 4 4 4 5 5 5 5 4 4 3 3 4 5 6 8 8 8 9
8 9 11 11 10 9 7 6 5 4 4 3 3 3 2 2 2 2 2 1 1 1 2 2 2 2 2 2 3 3 4 4 4 3 1 1 3 4 6 8 8 8 8
9 9 9 10 9 8 7 6 5 4 4 3 3 3 3 3 3 3 2 2 2 2 2 1 1 0 1 1 1 2 3 4 4 4 1 2 4 5 6 7 8 8 8
7 8 9 9 8 7 5 5 4 4 4 4 4 5 5 5 5 5 5 4 4 3 3 3 2 2 2 2 2 3 4 5 5 3 1 3 4 6 7 7 7 7 7
5 6 8 8 7 6 4 4 4 4 4 4 5 6 6 7 7 7 7 6 6 5 5 4 4 4 4 3 4 4 5 5 5 1 1 4 6 7 7 6 7 7 7
5 6 6 7 6 5 4 4 4 4 4 5 6 6 7 8 8 9 9 9 8 8 7 6 6 6 5 5 5 5 5 6 3 1 2 5 7 8 8 7 6 7 7
5 5 4 4 4 4 4 3 3 4 4 6 6 7 8 8 9 10 10 11 10 10 9 8 8 7 7 7 6 7 7 6 3 0 2 6 8 9 8 7 7 7 7
4 3 2 1 1 3 4 4 4 5 6 7 7 8 8 9 10 11 12 12 12 11 11 10 10 9 8 8 8 8 8 8 4 2 3 6 9 10 9 8 7 7 7
2 2 2 0 1 3 5 5 6 6 7 8 8 9 9 10 10 11 12 12 12 12 12 12 11 11 10 10 9 9 9 8 4 3 4 7 10 10 9 8 7 7 7
2 2 1 1 1 2 3 4 6 7 8 9 9 9 9 9 9 9 10 11 12 12 12 12 12 12 11 10 10 10 10 6 5 4 6 10 12 12 11 9 8 8 7
2 1 2 1 1 2 3 4 5 6 8 8 8 8 8 8 8 9 9 10 10 11 12 12 12 11 10 7 8 9 7 7 6 6 7 12 13 13 11 10 9 9 8
3 3 2 2 2 3 2 4 4 5 6 7 8 8 7 7 7 6 6 7 7 8 8 9 8 6 5 5 5 5 5 5 5 7 9 14 15 14 13 12 11 10 9
5 4 3 3 3 3 3 3 3 3 4 4 6 7 4 3 3 3 3 4 4 4 4 4 3 4 5 5 5 4 4 4 5 7 11 16 17 15 15 14 12 11 10
5 3 2 3 4 3 3 3 4 3 3 4 4 6 4 2 3 3 3 3 4 4 3 3 3 4 4 4 4 3 2 3 5 6 9 16 19 17 16 16 14 13 11
5 2 1 2 3 3 3 4 3 4 5 5 4 5 5 2 2 2 3 3 3 3 4 4 4 4 4 3 3 3 3 3 4 5 7 12 18 18 17 17 16 14 13
4 2 1 2 3 4 5 5 4 4 5 4 4 7 7 5 3 2 2 2 3 3 3 3 4 3 3 4 4 4 3 3 3 4 6 8 12 16 18 17 16 16 15
4 3 2 4 4 5 5 5 3 4 4 4 5 7 8 8 6 3 3 3 3 2 1 2 3 3 4 4 3 3 3 2 3 3 5 7 9 11 14 17 17 17 16
5 4 3 4 4 4 5 4 4 4 4 4 5 6 7 8 8 4 3 3 3 1 1 2 2 3 3 4 4 4 3 3 3 4 4 6 8 9 10 14 18 18 18
5 5 4 4 4 4 4 4 5 5 5 4 4 5 7 7 8 5 3 4 4 2 2 2 1 2 2 3 4 4 4 4 4 4 5 4 5 8 11 11 13 16 19
5 6 5 5 3 3 3 3 3 4 4 4 4 6 7 7 7 5 5 5 5 3 3 2 1 1 1 1 1 2 3 4 5 5 4 4 5 6 8 10 12 12 14
6 6 5 4 3 3 1 1 1 1 2 2 4 5 6 6 6 5 5 5 5 4 5 4 2 1 1 0 1 0 2 3 2 4 5 5 5 4 5 9 10 12 13
6 6 6 4 3 2 2 2 3 3 4 4 5 5 5 5 5 5 5 5 5 4 4 4 2 1 1 1 1 2 1 3 3 2 3 4 5 5 5 5 8 12 14
6 6 6 4 3 1 2 2 2 1 2 3 3 4 5 5 4 5 5 5 5 3 4 4 3 1 0 1 1 1 2 2 1 3 3 2 4 5 6 6 7 9 13
7 6 5 4 3 1 1 2 1 1 1 2 3 5 5 5 4 4 4 4 5 4 4 4 4 3 1 0 1 1 1 1 2 2 3 3 2 3 5 6 5 6 11
6 5 5 4 3 2 1 1 2 1 0 2 3 4 4 4 4 5 4 5 5 4 4 4 3 3 2 1 1 1 1 1 1 2 3 3 4 4 4 5 6 6 9
Wind_Direction
167 164 148 139 133 129 125 121 117 113 111 107 102 97 93 89 86 81 79 79 78 77 73 70 68 68 68 66 63 61 62 61 61 69 78 86 90 90 94 107 108 106 108
163 160 151 144 141 137 135 132 130 128 125 125 125 123 120 113 104 96 87 81 83 84 79 73 67 65 64 66 59 50 47 47 44 49 65 89 101 105 108 115 117 115 113
142 149 149 146 144 144 145 145 147 148 151 157 163 165 167 166 154 140 130 113 107 111 104 92 72 61 58 56 44 29 21 18 12 8 25 144 141 132 124 124 124 120 119
139 147 151 148 147 150 153 156 161 168 177 188 200 207 209 213 212 206 203 202 207 191 175 171 155 38 21 11 353 349 349 351 350 346 4 191 183 155 146 137 134 131 128
131 142 149 147 146 150 157 166 176 188 198 208 217 224 227 229 230 227 224 219 220 221 216 211 213 238 262 277 295 308 321 333 343 350 64 178 176 163 155 147 143 141 141
127 138 146 144 147 150 159 176 190 203 215 226 234 235 235 234 234 231 229 226 224 226 227 224 221 229 245 260 274 289 304 317 339 350 158 177 173 167 155 151 149 148 149
145 153 155 150 152 161 177 199 213 224 235 245 251 251 248 243 239 237 233 230 228 226 227 226 224 230 239 249 259 273 287 304 320 243 200 185 178 168 158 155 159 158 153
152 159 164 168 176 189 209 225 242 249 254 259 263 263 259 255 248 242 237 232 230 228 227 225 223 227 237 245 252 261 272 285 300 281 221 192 184 169 161 157 158 162 159
142 142 160 205 261 258 260 263 269 270 275 275 274 272 270 267 261 252 243 236 232 230 229 226 223 225 232 240 247 256 264 274 283 246 226 200 191 172 165 163 163 166 161
140 138 149 185 293 296 288 282 280 277 280 281 279 275 275 273 271 265 256 245 237 234 232 229 226 226 230 236 243 251 260 271 269 246 227 206 192 175 170 171 169 167 162
87 91 110 73 6 332 309 299 294 291 292 290 286 280 278 273 273 273 267 255 244 240 235 232 231 230 232 236 242 250 259 255 248 244 221 207 193 177 174 174 170 166 163
91 67 64 50 17 1 343 326 306 298 294 289 282 278 274 268 265 266 266 262 252 244 241 235 235 236 236 231 242 255 252 246 243 240 227 211 194 181 178 178 175 171 169
121 89 67 49 26 16 346 336 322 313 305 298 290 281 273 271 269 271 267 265 262 252 242 237 233 231 225 215 223 239 240 239 236 237 229 213 197 185 183 183 179 177 175
96 90 58 48 35 20 12 342 330 321 311 302 299 302 288 275 272 268 257 255 249 240 223 224 218 226 228 219 216 230 237 235 240 234 229 217 204 193 188 185 184 183 182
100 94 50 60 48 21 11 340 351 332 320 320 321 326 316 285 284 280 267 255 248 235 221 217 216 222 227 223 226 223 231 251 254 235 229 220 208 199 192 189 188 187 186
118 102 77 77 52 33 14 349 334 340 345 354 353 348 349 336 313 302 293 273 257 240 229 219 218 219 226 225 227 214 229 245 260 239 224 220 211 203 196 193 192 191 190
136 110 86 97 57 34 11 352 352 353 2 2 2 9 10 7 351 335 335 309 282 262 235 226 229 219 224 224 223 220 220 229 244 237 222 218 215 210 204 199 196 195 195
127 94 46 61 58 38 22 6 355 359 6 4 8 10 11 11 7 359 350 328 310 303 258 234 224 227 231 230 231 232 222 224 237 234 225 222 217 214 213 208 201 199 199
129 101 80 70 62 43 28 14 4 5 7 6 10 11 11 14 15 12 353 333 336 331 311 280 229 214 228 239 242 237 224 218 222 231 227 223 219 217 214 216 209 204 203
119 98 93 72 62 44 27 17 10 7 2 3 5 6 10 12 16 17 4 352 352 0 347 325 273 228 225 236 256 255 239 224 209 214 220 223 220 223 217 215 213 212 210
102 90 89 84 60 50 35 17 10 355 345 350 352 1 7 11 16 21 13 4 4 7 354 341 311 269 260 223 252 291 279 241 225 218 209 213 219 223 217 214 211 209 211
114 107 106 104 83 66 57 340 327 317 316 323 338 354 3 11 15 23 18 9 7 9 9 4 13 9 325 155 163 233 308 312 261 223 203 210 217 212 214 217 212 209 207
127 131 128 127 114 86 46 25 13 8 357 355 350 347 346 359 10 16 13 13 12 20 7 356 9 36 325 301 214 175 198 259 309 308 234 225 214 209 214 209 211 210 209
153 148 142 142 139 118 70 58 48 28 346 309 312 327 344 358 1 9 12 11 9 11 6 351 13 359 50 305 304 242 215 198 243 318 316 265 232 221 218 220 213 209 210
160 155 155 153 162 178 116 102 82 37 301 309 339 353 355 352 349 353 2 5 2 356 353 354 357 1 357 272 279 298 305 250 203 216 279 305 293 244 223 220 215 210 210
160 155 157 162 190 216 192 120 126 130 52 22 2 350 345 339 332 337 345 352 349 349 348 348 352 356 354 338 299 254 219 235 234 218 243 268 275 268 239 219 215 212 211
Height
1540 1540 1540 1541 1541 1541 1541 1541 1541 1541 1541 1541 1541 1541 1541 1541 1541 1540 1540 1540 1540 1540 1540 1540 1540 1539 1539 1539 1539 1539 1538 1538 1538 1537 1537 1537 1537 1537 1536 1536 1536 1536 1537
1539 1539 1540 1541 1541 1541 1541 1541 1541 1541 1541 1541 1541 1540 1540 1540 1540 1539 1539 1539 1539 1539 1539 1539 1539 1539 1539 1539 1539 1539 1538 1538 1538 1538 1537 1537 1537 1537 1537 1537 1537 1537 1537
1538 1539 1540 1540 1541 1541 1541 1540 1540 1540 1540 1540 1539 1539 1539 1539 1539 1538 1538 1538 1538 1538 1538 1538 1538 1538 1538 1538 1538 1538 1538 1538 1538 1538 1537 1537 1537 1537 1537 1537 1537 1537 1537
1539 1539 1540 1540 1540 1540 1540 1539 1539 1539 1539 1538 1538 1538 1538 1537 1537 1537 1537 1537 1536 1536 1536 1536 1537 1537 1537 1537 1537 1538 1538 1538 1537 1537 1537 1537 1537 1537 1537 1537 1537 1537 1538
1539 1539 1539 1539 1539 1539 1539 1538 1538 1537 1537 1537 1537 1536 1536 1536 1536 1535 1535 1535 1535 1535 1535 1535 1535 1535 1536 1536 1536 1537 1537 1537 1537 1537 1537 1537 1537 1537 1537 1537 1537 1537 1538
1539 1539 1539 1538 1538 1538 1537 1537 1536 1536 1535 1535 1535 1534 1534 1534 1534 1534 1533 1533 1533 1533 1533 1533 1534 1534 1534 1535 1535 1535 1536 1536 1536 1536 1536 1536 1536 1536 1536 1536 1536 1537 1537
1539 1539 1538 1538 1537 1536 1536 1535 1534 1534 1533 1533 1532 1532 1532 1532 1532 1531 1531 1531 1531 1531 1531 1532 1532 1532 1532 1533 1533 1534 1535 1535 1535 1535 1536 1536 1536 1536 1536 1536 1536 1537 1537
1539 1538 1538 1537 1536 1535 1534 1533 1532 1531 1531 1530 1530 1529 1529 1529 1529 1529 1529 1529 1529 1529 1529 1530 1530 1530 1531 1531 1532 1532 1533 1534 1534 1535 1535 1535 1535 1535 1535 1536 1536 1536 1537
1539 1538 1537 1536 1535 1534 1532 1531 1530 1529 1528 1527 1527 1526 1526 1526 1526 1526 1526 1527 1527 1527 1527 1527 1528 1528 1529 1529 1530 1531 1531 1532 1533 1533 1534 1534 1535 1535 1535 1535 1535 1536 1537
1538 1537 1536 1535 1534 1532 1531 1529 1528 1527 1526 1525 1524 1523 1523 1523 1523 1523 1523 1524 1524 1524 1525 1525 1526 1526 1527 1527 1528 1529 1529 1531 1531 1532 1533 1533 1533 1534 1534 1535 1535 1535 1536
1538 1537 1535 1534 1532 1531 1529 1527 1526 1525 1523 1522 1521 1520 1520 1520 1520 1520 1520 1520 1521 1521 1522 1522 1523 1524 1525 1525 1526 1527 1527 1528 1530 1530 1531 1532 1533 1533 1534 1534 1535 1535 1536
1537 1536 1534 1532 1531 1529 1527 1526 1524 1523 1521 1520 1519 1518 1517 1517 1517 1517 1517 1517 1518 1518 1519 1519 1520 1522 1522 1523 1524 1525 1525 1526 1527 1529 1530 1531 1532 1532 1533 1533 1534 1535 1535
1535 1534 1533 1531 1529 1527 1525 1523 1522 1520 1519 1518 1517 1516 1515 1514 1514 1513 1514 1514 1515 1515 1516 1517 1518 1519 1520 1521 1522 1523 1523 1524 1525 1527 1528 1529 1530 1531 1532 1533 1533 1534 1535
1534 1533 1531 1529 1527 1525 1523 1522 1520 1518 1517 1515 1514 1513 1512 1511 1511 1510 1510 1511 1512 1512 1513 1514 1515 1516 1517 1518 1519 1520 1521 1522 1523 1525 1526 1528 1529 1530 1531 1532 1532 1533 1534
1533 1531 1530 1528 1526 1524 1522 1520 1518 1517 1515 1514 1513 1511 1510 1509 1508 1508 1508 1508 1508 1509 1510 1511 1511 1512 1514 1515 1517 1518 1519 1520 1521 1523 1524 1526 1527 1529 1530 1530 1531 1532 1533
1531 1530 1528 1527 1525 1523 1521 1519 1517 1515 1514 1512 1511 1510 1508 1507 1506 1505 1505 1505 1505 1506 1506 1507 1508 1509 1510 1512 1514 1515 1516 1517 1518 1520 1522 1524 1525 1527 1528 1529 1530 1531 1532
1530 1528 1527 1526 1524 1522 1520 1518 1516 1514 1512 1511 1509 1508 1507 1506 1505 1504 1503 1503 1503 1503 1504 1504 1505 1506 1507 1509 1511 1512 1513 1514 1516 1517 1519 1521 1523 1524 1526 1527 1528 1530 1531
1528 1527 1526 1525 1523 1522 1519 1517 1515 1513 1512 1510 1508 1507 1505 1504 1503 1502 1501 1501 1500 1500 1501 1501 1502 1503 1504 1506 1507 1508 1509 1511 1513 1514 1516 1518 1520 1522 1524 1525 1527 1528 1529
1527 1526 1525 1524 1523 1521 1519 1517 1515 1513 1511 1509 1508 1506 1504 1502 1501 1500 1499 1499 1498 1498 1498 1499 1499 1500 1501 1502 1503 1505 1506 1508 1510 1511 1513 1515 1518 1519 1521 1523 1525 1526 1527
1526 1525 1525 1523 1522 1520 1518 1517 1515 1513 1511 1509 1507 1505 1503 1502 1500 1499 1498 1497 1496 1496 1496 1496 1497 1498 1498 1499 1500 1501 1503 1504 1506 1508 1510 1512 1514 1516 1518 1520 1522 1524 1525
1526 1525 1524 1523 1521 1519 1517 1515 1514 1512 1511 1509 1507 1505 1503 1502 1500 1498 1497 1496 1495 1494 1494 1494 1495 1495 1496 1497 1498 1498 1500 1501 1502 1504 1506 1508 1510 1513 1515 1517 1519 1521 1523
1525 1524 1523 1522 1520 1519 1517 1515 1514 1513 1511 1510 1508 1506 1504 1502 1500 1498 1496 1495 1494 1493 1493 1493 1493 1493 1494 1495 1496 1497 1497 1499 1499 1501 1502 1504 1506 1509 1511 1513 1516 1518 1520
1524 1523 1522 1521 1520 1518 1517 1515 1514 1513 1511 1510 1508 1506 1504 1502 1500 1498 1496 1495 1494 1493 1492 1492 1492 1492 1493 1493 1494 1496 1496 1496 1496 1498 1499 1500 1502 1505 1507 1509 1512 1514 1516
1523 1522 1521 1521 1519 1518 1516 1515 1514 1512 1511 1509 1508 1506 1505 1503 1501 1499 1497 1495 1493 1492 1491 1491 1490 1491 1491 1492 1492 1494 1495 1495 1496 1496 1497 1498 1499 1501 1503 1505 1507 1509 1512
1521 1521 1521 1520 1519 1518 1516 1515 1514 1512 1511 1509 1508 1506 1504 1503 1501 1499 1497 1495 1493 1492 1491 1490 1490 1489 1489 1490 1490 1491 1492 1493 1494 1495 1494 1495 1496 1497 1499 1501 1503 1505 1507
1520 1520 1520 1519 1518 1517 1516 1515 1513 1512 1510 1509 1507 1506 1504 1502 1501 1499 1497 1495 1493 1492 1491 1490 1489 1489 1488 1488 1489 1489 1490 1490 1491 1492 1492 1492 1492 1494 1495 1496 1498 1500 1502